GEFSSGP_con_prob3kmehi_306.txt.gz
EHI
4 6 8 9 7 5 3 1 1 2 1 1 1 2 3 3 2 3 3 3 3 2 2 2 3 3 3 4 4 4 4 3 4 6 7 6 6 7 9 8 7 5 4 3 4 4 3 3 3
2 4 7 8 6 4 3 2 2 2 2 2 2 3 3 3 3 3 3 3 2 1 1 1 3 3 3 4 5 6 5 4 5 6 7 7 7 7 7 7 5 4 3 3 3 3 3 3 3
2 4 7 6 4 3 3 3 3 3 3 3 3 3 3 3 3 3 3 3 2 1 1 1 2 3 4 5 7 8 7 6 5 6 6 7 7 5 5 5 4 3 3 3 3 3 3 3 3
5 7 7 4 3 3 3 3 3 3 3 3 3 3 3 3 3 3 3 3 3 2 2 2 3 3 3 4 6 8 7 5 5 5 5 5 5 4 4 4 3 3 3 3 3 3 3 3 3
9 8 6 4 3 3 3 3 3 3 3 3 3 3 3 3 3 3 3 3 3 3 3 3 3 4 3 4 5 6 5 4 4 4 4 4 4 4 4 4 4 3 3 3 3 3 3 3 3
9 6 4 3 3 3 3 3 3 3 3 3 2 3 3 3 3 3 3 3 3 3 3 3 3 4 4 3 4 4 3 3 3 3 3 3 3 4 4 5 4 4 3 3 4 3 3 3 3
5 4 3 3 3 3 3 3 3 3 3 3 3 3 3 3 3 3 3 3 3 3 3 3 2 3 3 3 3 3 3 3 3 3 4 3 3 4 5 5 5 4 3 4 4 4 3 3 3
3 2 2 3 3 3 3 3 3 3 3 3 3 3 4 4 4 3 3 3 3 3 3 3 2 1 1 1 2 3 3 4 4 5 5 4 4 4 5 5 5 4 4 4 5 4 3 3 4
3 1 1 2 2 2 2 2 3 3 3 3 3 3 4 5 5 4 4 4 3 3 3 3 3 1 1 1 2 3 3 4 5 5 6 5 4 4 4 4 5 5 5 5 6 5 4 4 5
1 1 1 1 1 1 1 1 1 2 3 3 3 3 4 6 6 6 6 5 5 4 3 3 3 3 2 2 3 3 3 3 4 4 4 4 3 3 3 4 5 6 6 6 6 6 6 5 5
0 0 1 2 2 1 0 0 0 2 3 3 3 4 5 7 7 7 6 7 6 5 4 3 3 3 3 3 3 3 3 3 3 3 3 3 3 3 2 4 6 6 6 6 6 6 6 6 6
0 0 1 1 1 1 0 0 1 2 3 3 4 6 8 9 8 7 6 6 7 7 6 5 4 3 3 4 3 3 3 3 3 3 3 3 3 3 3 3 4 5 6 6 6 6 6 6 6
0 0 0 0 0 0 0 0 2 3 3 3 5 7 9 9 9 8 7 7 8 8 8 7 5 4 4 5 4 4 4 4 4 4 4 4 4 4 3 3 4 4 5 5 6 6 6 6 6
0 0 0 0 0 0 0 1 1 3 3 4 5 7 7 8 9 9 8 9 9 10 9 8 6 5 6 6 6 5 4 4 4 5 5 6 6 6 4 4 4 5 5 5 6 6 6 6 6
0 0 0 0 0 0 1 1 2 2 3 4 5 7 7 8 9 10 9 10 10 9 8 7 6 7 8 8 7 5 4 4 4 4 5 6 6 6 6 5 6 7 7 6 6 6 6 6 6
0 0 0 0 0 0 1 2 2 2 3 3 5 7 8 9 11 11 10 9 9 8 7 7 7 7 8 8 8 6 4 4 4 4 5 6 6 7 8 7 7 7 8 8 8 8 8 7 6
0 0 0 0 0 1 1 3 3 3 3 3 3 5 8 10 12 12 10 10 9 8 8 8 7 7 7 8 8 7 5 5 4 5 5 5 5 7 9 9 9 8 8 9 9 9 9 8 7
0 0 0 0 0 1 2 2 2 2 3 3 3 4 7 10 11 11 11 11 10 10 10 9 8 7 8 8 9 8 6 4 4 5 4 4 4 6 8 10 10 9 9 9 9 9 9 8 8
0 0 0 0 0 1 1 1 1 1 2 3 4 5 8 9 10 10 11 11 11 12 12 11 9 9 10 10 10 10 7 4 3 4 3 3 4 5 8 9 10 10 11 11 11 10 9 9 8
0 0 0 0 0 0 0 0 0 0 2 4 6 7 8 9 10 10 10 11 12 13 14 12 11 11 11 11 11 10 8 5 3 3 4 4 5 6 7 8 9 10 12 13 13 11 10 9 9
0 0 0 0 0 0 0 0 1 1 4 6 8 8 9 10 10 10 10 10 11 12 13 13 14 14 13 12 10 10 9 6 5 5 6 6 7 7 6 6 8 10 12 13 13 12 11 10 10
0 0 0 0 0 0 0 0 1 2 5 7 9 9 11 11 11 10 10 10 9 9 11 14 16 17 16 14 11 11 10 8 8 8 8 7 7 7 6 6 7 10 11 12 12 12 12 11 10
0 0 0 0 0 0 0 0 1 2 4 7 9 10 11 11 11 11 10 9 8 7 8 13 18 21 19 16 13 12 11 10 9 9 8 7 6 6 6 7 9 12 12 12 12 12 12 11 11
0 0 0 0 0 0 0 0 0 1 3 6 8 8 9 9 10 11 12 11 10 9 9 13 21 25 22 18 15 14 14 14 12 10 9 7 7 7 7 10 13 15 15 16 16 14 12 11 11
0 0 0 0 0 0 0 0 1 2 4 6 7 7 7 7 8 10 12 12 12 13 14 16 23 27 25 20 17 17 18 17 15 13 10 8 7 8 10 14 18 18 18 19 19 16 12 12 12
0 0 0 0 0 0 0 1 2 3 4 5 6 6 6 6 7 8 11 12 13 14 16 19 24 28 28 24 21 21 22 21 19 17 14 12 11 11 13 17 19 20 20 21 20 15 12 12 12
0 0 0 0 0 0 0 1 2 4 4 4 4 4 6 7 7 7 10 11 11 12 15 18 22 26 27 26 25 25 26 26 25 24 22 19 18 17 18 19 20 21 22 22 20 15 13 13 13
0 0 0 0 0 0 0 1 2 3 4 3 4 4 6 7 8 8 9 11 11 9 11 13 17 21 24 24 24 25 26 28 29 29 28 26 24 25 25 23 23 25 25 23 19 16 14 13 12
0 0 0 0 0 0 0 1 2 3 3 3 5 6 6 7 8 9 11 12 10 6 6 9 13 17 20 19 19 21 24 26 28 28 28 27 27 30 29 27 26 28 27 25 20 16 15 12 9
0 0 0 0 0 0 0 1 2 3 2 3 6 7 7 7 7 9 12 12 8 5 5 8 13 16 18 18 17 18 22 25 26 26 26 26 30 32 31 27 27 29 29 27 22 19 17 12 7

GEFSSGP_con_prob3kmehi_312.txt.gz
EHI
5 11 21 24 17 7 1 0 0 0 0 0 0 0 0 0 0 0 1 3 4 2 1 1 2 3 3 3 3 3 3 3 2 1 0 0 0 0 1 1 0 0 0 0 0 0 1 2 2
8 15 22 20 13 5 1 0 0 0 0 0 0 0 0 0 0 0 1 3 4 3 1 2 3 3 3 3 3 3 3 3 2 1 0 0 1 1 2 1 0 0 0 0 0 0 0 1 1
14 19 20 14 7 2 0 0 0 0 0 0 0 0 0 0 0 0 1 2 3 1 1 2 3 3 3 3 3 3 3 3 1 0 1 1 1 2 2 1 0 0 0 0 0 0 0 0 0
22 21 15 8 3 1 0 0 0 0 0 0 0 0 0 0 0 0 1 1 1 1 1 3 3 3 3 3 3 3 3 2 1 1 2 2 2 1 1 0 0 0 0 0 0 0 0 0 0
25 19 10 4 2 1 0 0 0 0 0 0 0 0 0 0 0 0 0 0 1 1 2 3 3 3 2 3 4 4 4 3 1 1 2 3 2 1 0 0 0 0 0 0 0 0 0 0 0
21 14 5 1 0 0 0 0 0 0 0 0 0 0 0 0 0 0 0 0 0 1 2 3 2 1 1 2 3 4 4 4 2 1 2 2 2 2 1 0 0 0 0 0 0 0 0 0 0
16 9 2 0 0 0 0 0 0 0 0 0 0 0 0 0 0 0 0 0 1 1 2 2 1 0 0 1 2 3 4 3 2 2 2 2 2 2 1 1 1 1 0 0 0 0 0 0 0
10 5 1 0 0 0 0 0 0 0 0 0 0 0 1 1 2 1 1 0 2 3 3 1 0 0 0 2 5 5 4 4 3 3 3 3 3 3 3 3 4 4 2 1 1 1 1 1 1
6 3 0 0 0 0 0 0 0 1 1 1 1 2 2 3 3 2 1 0 2 3 3 1 0 0 0 3 7 8 7 7 5 5 5 5 4 3 3 4 6 6 5 3 2 2 2 2 2
2 1 0 0 0 0 0 0 0 1 2 2 3 4 4 3 3 2 1 1 2 3 3 1 0 0 0 2 6 8 9 10 8 8 9 7 5 4 4 6 7 8 6 4 3 4 3 3 3
0 0 0 0 0 0 0 0 0 0 1 2 4 5 5 4 3 3 2 3 4 4 3 2 2 1 1 1 3 6 9 10 10 11 11 9 6 4 4 6 9 10 7 5 4 5 4 4 4
0 0 0 0 0 0 0 0 0 0 0 1 4 7 6 4 3 3 3 4 5 5 5 4 4 4 5 7 7 7 8 9 10 12 12 9 7 5 5 7 10 11 8 7 7 7 7 6 6
0 0 0 0 0 0 0 0 0 0 1 2 5 9 8 4 3 4 5 6 7 8 8 8 7 8 12 15 13 10 10 9 10 12 12 10 9 9 9 10 11 10 9 10 10 9 9 9 8
0 0 0 0 0 0 1 1 1 1 1 2 5 9 8 5 4 6 8 9 9 10 12 11 10 13 16 17 16 14 12 10 10 13 14 13 12 12 12 12 12 10 9 10 10 10 9 9 9
0 0 0 0 0 1 2 2 1 2 2 2 5 8 8 6 7 8 10 11 11 11 12 11 12 15 17 16 14 12 11 11 12 15 17 16 15 16 16 14 12 11 11 11 9 8 8 7 6
0 0 0 0 1 2 3 3 3 3 3 4 6 8 9 8 9 11 11 12 13 12 13 12 12 14 16 16 13 10 11 13 14 16 17 18 18 20 20 15 10 10 11 11 9 8 7 6 5
0 0 0 0 1 2 2 2 2 3 4 5 6 7 9 10 11 12 12 13 16 17 18 16 15 15 16 15 13 11 12 14 15 15 17 19 19 20 19 15 10 9 10 10 10 10 9 6 5
0 0 0 0 0 1 1 1 1 2 4 5 6 9 11 14 15 14 12 14 18 22 23 22 21 19 17 14 12 10 11 12 13 15 18 18 16 16 16 14 12 10 9 10 13 13 12 10 7
0 0 0 0 0 0 0 0 1 2 3 5 9 12 15 18 20 18 14 14 19 25 27 27 26 23 20 15 13 12 11 11 12 14 16 16 13 12 12 12 12 11 10 12 14 15 15 13 10
0 0 0 0 0 0 0 1 3 3 2 4 10 15 18 21 25 25 20 16 20 26 30 30 28 26 23 20 17 15 14 12 12 13 15 15 14 12 12 13 13 11 11 14 15 16 16 14 10
0 0 0 0 0 0 0 2 3 3 2 3 8 15 18 21 27 31 27 21 21 26 30 30 31 30 27 24 20 17 16 15 13 15 18 18 16 15 14 15 15 13 12 15 16 17 16 13 11
0 0 0 0 0 0 0 1 3 2 0 1 6 12 15 19 25 30 30 26 24 26 30 34 36 35 30 27 22 18 17 16 15 16 20 22 22 20 18 19 20 18 16 17 17 17 17 16 15
0 0 0 0 0 0 0 1 2 1 1 2 5 10 14 17 23 28 30 29 26 27 31 37 41 38 34 29 25 20 18 17 17 17 21 27 28 25 23 24 26 24 22 21 20 19 20 20 19
0 0 0 0 0 0 0 0 1 1 3 5 8 10 14 18 22 27 30 31 29 28 33 39 43 43 38 32 27 23 21 21 22 23 26 29 30 27 25 26 28 28 27 26 26 25 24 22 20
0 0 0 0 0 0 0 0 2 3 5 9 11 12 13 17 19 22 27 31 30 30 35 42 47 47 43 36 30 29 28 27 27 27 27 27 26 26 26 27 28 29 30 30 30 29 27 25 23
0 0 0 0 0 0 0 1 3 5 7 9 12 12 12 13 14 18 23 28 30 30 36 45 51 51 46 41 39 39 37 32 29 27 25 25 25 27 30 32 31 30 30 30 30 29 29 28 27
0 0 0 0 0 0 0 1 4 7 8 10 11 12 11 9 11 16 20 25 28 30 36 45 52 53 49 46 47 47 45 40 36 31 27 27 28 29 32 35 33 30 28 28 28 29 28 27 25
0 0 0 0 0 0 0 1 4 8 9 10 10 11 11 9 11 17 20 23 27 31 36 42 50 54 50 47 48 48 48 49 46 40 35 36 37 36 36 36 34 31 28 27 28 27 25 23 21
0 0 0 0 0 0 0 1 3 7 9 9 9 11 12 11 13 18 21 24 27 30 33 39 45 50 48 46 45 46 49 51 50 46 45 46 45 43 42 40 37 33 29 29 29 27 24 21 19
0 0 0 0 0 0 0 0 2 5 7 8 10 11 13 14 15 18 22 25 27 27 31 35 41 46 46 44 44 45 48 51 50 49 51 52 48 46 45 43 39 33 29 30 30 28 26 23 20

GEFSSGP_con_prob3kmehi_318.txt.gz
EHI
3 2 1 1 1 0 0 0 0 0 0 0 0 0 1 0 0 0 0 0 0 0 0 0 1 2 3 3 4 5 5 5 6 6 6 6 4 3 3 2 1 0 1 2 4 3 4 5 5
2 2 2 2 1 0 0 0 0 0 0 0 0 0 1 0 0 0 0 0 0 0 0 0 1 2 3 3 4 5 4 4 6 6 7 6 5 4 4 3 1 1 3 4 4 3 2 3 5
1 1 2 2 1 0 0 0 0 0 0 0 0 0 0 0 0 0 0 0 0 0 0 1 2 3 3 3 4 4 3 4 6 6 7 7 6 5 4 3 1 1 3 5 4 2 1 1 2
3 3 2 1 0 0 0 0 0 0 0 0 0 0 0 0 0 0 0 0 0 0 0 1 2 3 3 3 3 3 2 3 4 6 6 6 6 4 3 2 1 0 2 3 3 3 2 1 1
4 3 2 1 0 0 0 0 0 0 0 1 1 0 0 0 0 0 0 1 0 0 0 1 2 3 4 4 4 4 3 2 3 5 6 6 6 5 4 3 2 1 1 3 3 3 3 2 2
3 2 1 0 0 0 0 0 0 1 1 1 2 1 0 0 0 0 0 0 0 0 0 1 2 3 5 6 7 7 6 4 4 5 6 6 6 6 5 4 3 2 3 3 3 3 3 2 2
3 1 0 0 0 0 0 0 0 1 1 1 1 1 0 0 0 0 0 0 0 0 0 0 1 2 4 6 8 9 9 8 6 6 6 5 5 6 6 5 4 3 3 3 3 3 3 3 2
4 2 1 0 0 0 0 0 1 1 1 0 0 0 1 2 2 1 0 0 0 0 0 0 0 0 2 4 8 10 10 10 7 5 5 4 4 5 6 5 4 4 4 4 4 3 3 3 3
5 3 1 0 0 0 0 0 1 1 1 0 1 2 5 6 5 2 0 0 0 0 0 0 0 0 0 2 5 8 9 9 7 5 4 4 4 4 5 5 4 5 5 5 5 4 3 3 3
2 1 1 0 0 0 0 0 0 0 1 2 4 7 9 9 6 3 1 2 1 0 0 0 0 0 0 0 2 3 5 5 4 3 3 4 3 3 4 4 4 5 5 5 5 5 4 3 3
1 0 0 0 0 0 0 1 1 0 1 5 9 11 11 8 6 5 4 4 3 1 0 0 0 0 0 0 0 0 2 2 1 1 1 2 3 3 3 4 4 4 4 4 4 4 3 3 3
2 1 0 1 0 0 1 2 2 1 3 6 10 10 8 6 6 7 7 6 4 2 0 0 0 0 0 0 0 1 2 3 1 0 1 2 4 4 3 3 3 3 3 3 3 3 3 3 3
2 1 0 0 0 0 1 3 5 5 6 8 9 7 5 4 5 6 7 7 5 2 1 0 0 0 0 1 1 1 3 4 3 1 2 4 5 4 4 3 3 3 3 3 3 3 3 3 3
1 0 0 0 0 0 2 4 7 9 9 9 9 6 3 3 5 6 7 7 6 4 3 2 2 1 1 2 2 2 3 3 3 2 3 4 3 3 3 3 3 3 3 3 3 3 3 3 3
0 0 0 0 0 0 1 4 6 9 10 9 7 5 4 5 6 6 8 10 9 7 6 7 7 5 4 4 3 2 1 1 1 1 2 2 1 2 3 3 3 3 3 3 4 4 4 3 3
0 0 1 1 0 0 1 4 6 8 9 9 7 6 6 8 9 9 9 11 12 11 11 11 10 8 7 6 4 3 2 1 0 0 1 1 1 2 3 3 3 4 4 4 4 4 4 4 3
0 1 2 1 0 0 2 5 6 6 8 7 7 7 9 12 13 12 12 12 12 12 13 12 10 9 8 7 7 6 5 3 2 1 1 1 2 3 5 5 4 5 4 4 4 4 4 3 3
1 1 2 1 0 1 3 5 5 5 6 7 8 10 13 15 15 14 13 13 13 12 12 12 10 9 9 9 9 9 8 7 6 5 4 4 4 6 7 6 6 5 4 3 3 3 3 3 3
0 1 1 0 0 0 2 3 5 4 5 7 10 13 16 17 16 15 15 17 17 14 12 12 11 11 11 11 12 11 10 10 9 7 5 6 6 7 7 7 6 5 3 1 1 3 3 3 3
0 0 0 0 0 0 0 2 4 5 5 8 12 16 18 18 18 17 19 22 22 17 15 14 12 12 12 13 13 12 10 9 9 7 6 5 6 6 7 7 6 5 3 2 1 3 3 3 3
0 0 0 0 0 0 0 0 2 4 6 9 12 16 18 19 19 19 21 24 24 22 19 17 15 14 14 14 14 13 11 9 9 8 6 4 4 5 6 6 6 6 5 4 3 3 3 3 3
0 0 0 0 0 0 0 0 1 4 8 10 14 18 20 19 19 21 22 24 24 23 22 19 17 15 15 15 15 14 12 11 10 9 8 5 3 4 5 5 5 5 6 5 4 3 3 3 3
0 0 0 0 0 0 0 0 1 3 7 11 15 20 21 19 20 23 24 23 24 24 22 20 18 17 17 17 17 15 14 12 10 9 8 6 5 6 6 4 4 5 7 6 5 3 3 3 3
0 0 0 0 0 0 0 0 0 1 5 10 16 21 23 21 21 23 23 23 24 25 23 20 19 20 20 19 17 15 14 12 11 9 8 8 10 11 9 7 6 7 9 9 7 5 4 4 4
0 0 0 0 0 0 0 0 0 0 3 9 16 21 23 23 22 21 22 23 23 25 24 22 22 23 23 21 18 15 13 12 12 11 11 12 15 15 12 10 10 10 11 12 11 8 6 6 6
0 0 0 0 0 0 0 0 1 1 4 9 16 19 20 22 21 20 21 23 24 25 26 25 24 24 23 22 20 16 14 13 15 15 15 16 18 17 14 12 12 12 13 14 13 11 9 9 8
0 0 0 0 0 0 0 1 3 4 6 11 16 16 16 18 20 19 20 23 26 26 26 26 25 24 23 23 23 20 16 16 17 17 16 16 15 15 14 14 14 15 15 15 15 13 12 12 11
0 0 0 0 0 0 0 2 3 5 7 13 17 16 15 18 21 20 20 22 25 26 25 24 25 24 24 24 24 22 19 16 15 14 14 14 13 12 13 14 15 16 16 16 16 15 13 13 13
0 0 0 0 0 0 0 1 2 4 8 14 19 18 18 21 23 23 23 23 24 25 26 27 26 26 25 24 23 22 19 16 14 13 13 12 11 11 10 11 13 14 14 14 15 14 12 11 11
0 0 0 0 0 0 0 0 1 4 8 15 20 21 20 23 26 26 26 25 25 25 29 31 29 27 26 25 24 22 20 18 16 14 12 11 10 9 8 9 11 11 11 11 13 13 11 9 8

GEFSSGP_con_prob3kmehi_324.txt.gz
EHI
3 2 1 0 0 0 0 0 0 0 0 0 0 0 0 0 0 0 0 0 0 0 0 1 3 5 4 3 2 2 3 4 4 4 3 1 0 1 2 4 3 3 2 3 3 1 1 2 2
2 2 1 0 0 0 0 0 0 0 0 0 0 0 0 0 0 0 0 0 0 0 0 1 3 4 4 3 2 3 3 4 4 4 4 3 2 2 3 4 4 4 5 5 4 2 0 1 1
1 1 1 0 0 0 0 0 0 0 0 0 0 0 0 0 0 0 0 0 0 0 0 1 2 3 2 2 2 3 4 4 5 5 6 5 4 4 4 4 5 6 6 6 5 2 0 0 0
0 0 0 0 0 0 0 0 0 0 0 0 0 0 0 0 0 0 0 0 0 0 0 1 2 2 1 1 0 2 4 5 5 6 6 6 4 3 3 3 5 5 5 5 3 2 1 1 1
0 0 0 0 0 0 0 0 0 0 0 0 0 0 0 0 0 0 0 0 0 0 0 1 1 1 1 1 0 1 4 5 6 6 7 6 3 1 1 2 3 5 5 4 3 3 2 2 2
1 0 0 0 0 0 0 0 0 0 0 0 0 0 0 0 0 0 0 0 0 0 0 0 0 1 3 3 3 3 4 6 6 7 7 6 4 2 0 1 2 4 6 5 3 3 3 3 3
1 0 0 0 0 0 0 0 0 0 0 0 0 0 0 0 0 0 0 0 0 0 0 0 0 1 3 6 6 5 5 6 7 8 8 8 6 4 2 2 3 5 6 6 4 4 3 3 3
1 0 0 0 0 0 0 0 0 0 0 0 0 0 0 1 0 0 0 0 0 0 0 0 0 0 1 4 6 6 6 7 8 8 8 7 7 5 4 4 5 6 6 6 6 5 4 4 4
1 1 0 0 0 0 0 0 0 0 0 0 0 1 2 2 1 0 0 0 0 0 0 0 0 0 0 1 3 4 5 6 6 6 6 5 5 4 4 4 5 6 6 6 6 5 5 5 4
3 3 2 1 0 0 0 1 1 0 0 0 1 2 3 3 2 0 0 0 0 0 0 0 0 0 0 0 1 1 3 3 3 3 3 3 3 3 3 3 4 5 5 4 4 4 4 5 4
4 4 3 2 1 0 1 2 2 1 1 0 2 4 4 3 1 0 0 0 0 0 0 0 0 0 0 0 0 0 1 1 1 1 1 1 1 2 3 3 3 4 4 3 3 3 3 4 4
2 2 2 1 1 1 1 2 2 2 1 1 3 6 7 4 1 0 0 0 0 0 0 0 0 0 0 1 1 0 0 0 0 0 0 0 0 1 2 3 3 3 3 3 3 3 3 3 3
0 1 1 2 1 1 1 1 1 1 1 2 5 7 7 4 1 1 1 0 0 0 0 0 0 0 0 1 1 0 0 0 0 0 0 0 0 0 1 2 2 3 3 3 3 3 3 3 3
0 0 2 2 2 1 0 0 0 0 0 2 5 6 5 4 3 3 2 1 0 0 0 0 0 0 0 1 1 0 0 0 0 0 0 0 0 0 0 1 1 2 3 3 3 3 3 3 3
0 0 1 1 1 1 0 0 0 0 2 4 5 4 4 4 5 4 2 1 0 0 0 0 0 0 0 0 0 0 0 0 0 0 0 0 0 0 0 0 1 2 3 3 3 3 3 3 3
0 0 0 0 0 0 0 0 0 1 4 6 5 3 3 4 5 4 1 0 0 0 0 0 0 0 0 0 0 1 1 0 0 0 0 0 0 0 0 0 1 2 2 3 3 3 3 3 3
0 0 0 0 0 0 0 0 0 1 5 6 5 3 3 3 3 3 1 0 0 0 0 0 0 0 0 0 0 1 1 0 0 0 0 0 0 0 0 0 0 1 1 1 2 3 3 3 3
0 0 0 0 0 0 0 0 0 1 3 5 5 3 2 2 2 3 2 1 2 2 1 1 0 0 0 0 0 1 1 0 0 0 0 0 0 0 0 0 0 0 0 0 1 1 2 3 2
0 0 0 0 0 0 0 0 0 0 1 3 4 4 3 2 2 3 3 2 3 4 3 2 1 1 1 1 1 1 1 1 1 0 0 0 0 0 0 0 0 0 0 0 0 0 2 3 3
0 0 0 0 0 0 0 0 0 0 1 2 3 4 4 4 3 3 3 3 4 5 5 4 3 2 2 2 2 2 2 2 2 1 1 1 1 1 1 1 0 0 0 1 1 1 3 3 3
0 0 0 0 0 0 0 0 0 0 1 2 2 3 5 6 6 5 4 4 5 6 7 5 4 4 4 4 4 4 4 4 4 3 4 4 3 2 2 2 1 0 1 2 2 3 4 4 4
0 0 0 0 0 0 0 0 0 0 0 1 2 4 7 8 9 8 6 6 7 8 8 7 6 6 6 6 6 6 5 5 4 4 4 3 3 3 3 2 1 1 3 4 3 4 6 6 6
0 0 0 0 0 0 0 0 0 0 0 2 4 7 8 10 13 13 11 10 10 9 9 8 7 6 6 6 6 6 6 5 4 3 3 2 1 2 3 3 2 2 4 4 4 5 7 7 7
0 0 0 0 0 0 0 0 0 0 0 2 6 9 9 10 13 14 13 12 11 11 10 8 7 6 6 6 6 6 6 5 4 4 3 2 1 2 3 4 3 2 4 4 4 6 8 8 7
0 0 0 0 0 0 0 0 0 0 0 2 6 8 9 9 11 12 13 13 12 12 12 9 7 5 5 4 4 4 5 6 6 6 5 3 3 2 3 4 4 3 4 5 6 7 8 8 8
0 0 0 0 0 0 0 0 0 1 1 3 5 8 9 10 10 10 11 12 14 15 15 13 9 7 6 5 4 4 4 5 6 7 6 5 3 3 2 2 3 2 3 5 6 7 8 8 8
0 0 0 0 0 0 0 0 0 2 3 5 7 8 9 11 11 9 9 11 14 16 16 15 12 9 9 8 7 6 5 6 6 7 7 6 4 3 2 1 1 1 1 3 5 6 7 8 8
0 0 0 0 0 0 0 0 0 1 4 6 9 9 8 9 9 7 6 7 10 13 14 13 11 9 9 9 8 7 7 7 6 6 6 6 6 5 4 2 0 1 1 2 3 4 5 6 7
0 0 0 0 0 0 0 0 1 1 3 6 8 8 6 6 7 6 4 4 6 9 11 11 10 8 7 8 8 7 6 6 6 6 6 6 6 6 5 3 1 1 1 1 2 2 3 5 5
0 0 0 0 0 0 0 1 2 2 2 5 8 8 6 6 6 6 4 4 6 7 9 11 9 7 6 7 8 7 5 6 6 6 6 6 6 6 6 3 1 1 1 2 2 2 3 3 4

GEFSSGP_con_prob3kmehi_330.txt.gz
EHI
7 7 7 8 5 1 0 0 0 0 0 0 0 0 0 0 0 0 0 0 0 1 4 5 5 6 4 2 1 0 0 1 1 1 0 0 0 0 0 0 0 0 1 1 0 0 1 2 2
6 5 6 6 4 1 0 0 0 0 0 0 0 0 0 0 0 0 0 0 0 1 3 3 4 5 4 2 1 0 0 0 0 0 0 0 0 0 0 0 0 0 1 1 0 0 1 2 3
6 6 6 4 2 0 0 0 0 0 0 0 0 0 0 0 0 0 0 0 0 1 2 3 3 4 3 2 1 1 1 0 0 0 0 0 0 0 0 0 0 1 1 1 0 0 1 2 3
6 7 5 2 0 0 0 0 0 0 0 0 0 0 0 0 0 0 0 0 0 0 1 3 3 3 3 3 2 2 2 1 1 1 0 0 0 0 0 0 1 2 2 2 1 1 1 3 3
6 5 3 0 0 0 0 0 0 0 0 0 0 0 0 0 0 0 0 0 0 0 1 2 3 3 2 3 3 3 3 3 3 2 1 0 0 1 1 1 1 2 3 3 3 2 3 4 4
3 2 0 0 0 0 0 0 0 0 0 0 0 0 0 0 0 0 0 0 0 0 0 2 3 3 3 4 5 5 5 5 6 4 3 2 1 1 2 1 0 1 2 3 3 3 4 5 6
2 1 0 0 0 0 0 0 0 0 0 0 0 0 0 0 0 0 0 0 0 0 0 1 2 3 3 4 5 5 5 7 7 6 5 4 3 2 2 1 1 0 1 3 3 3 4 6 6
2 1 0 0 0 0 0 0 1 1 0 0 0 0 0 0 0 0 0 0 0 0 0 1 1 2 2 3 4 5 6 7 8 7 7 6 4 3 3 2 1 1 1 3 3 3 4 5 6
3 1 0 0 0 0 0 0 1 1 0 0 0 0 1 1 0 0 0 0 0 0 0 0 0 0 0 1 2 4 5 7 7 8 7 6 5 4 3 2 2 1 2 3 3 3 3 4 4
3 1 0 0 0 0 0 0 1 1 0 0 1 2 3 2 1 0 0 0 0 0 0 0 0 0 0 1 2 3 4 4 5 6 7 6 5 5 4 3 2 3 3 3 3 3 3 3 3
3 1 0 0 0 0 0 0 0 0 0 0 2 5 6 4 2 1 0 0 0 0 0 0 0 0 1 2 3 3 3 3 3 4 4 4 5 6 7 5 3 4 4 4 3 3 3 3 3
2 1 0 0 0 0 0 0 0 0 0 0 2 6 8 6 3 1 0 0 0 0 0 0 0 1 2 3 3 4 4 4 3 3 3 3 4 6 6 5 3 4 6 5 4 3 3 3 3
1 0 0 0 0 0 0 0 0 0 0 0 3 6 8 6 3 1 0 0 0 0 0 0 1 2 3 3 4 4 4 4 5 4 4 3 4 5 5 4 3 4 6 7 5 4 3 3 3
0 0 0 0 0 0 0 0 0 0 0 0 3 7 9 7 4 2 1 0 0 0 0 0 1 2 3 4 5 4 3 5 6 7 6 5 5 5 4 4 4 4 5 7 6 5 4 3 3
0 0 0 0 0 0 0 0 0 0 0 0 3 6 9 8 5 3 2 1 0 0 0 0 1 2 3 5 5 4 3 4 7 8 9 9 7 5 5 4 3 3 3 5 7 6 5 5 4
0 0 0 0 0 0 0 0 0 0 0 0 1 5 7 8 7 5 3 2 1 0 0 0 0 1 1 3 4 3 2 3 6 9 10 10 7 4 4 4 3 3 3 3 6 8 8 7 6
0 0 0 0 0 0 0 0 0 0 0 0 1 3 5 7 7 6 4 3 2 1 0 0 0 0 0 1 2 3 3 3 6 8 7 6 4 3 2 3 3 2 2 3 4 7 9 8 7
0 0 0 0 0 0 0 0 0 0 0 0 0 1 3 5 6 6 5 5 4 3 2 1 1 0 0 0 1 2 3 3 4 5 4 3 2 2 2 3 3 2 2 3 3 5 7 7 6
0 0 0 0 0 0 0 0 0 0 0 0 1 1 1 4 6 6 6 8 8 9 8 6 3 1 1 1 2 3 3 3 3 4 4 3 3 3 3 4 5 4 3 3 4 5 5 5 5
0 0 0 0 0 0 0 0 0 1 1 2 2 2 1 3 7 7 7 10 13 13 13 11 8 6 5 5 5 5 4 3 3 4 4 4 4 4 4 5 6 6 4 3 4 5 5 5 5
0 0 0 0 0 0 0 0 0 1 2 3 4 3 2 4 8 9 9 12 14 15 14 13 12 12 11 9 6 6 5 4 3 3 4 5 5 5 6 6 7 6 5 4 4 4 6 6 6
0 0 0 0 0 0 0 0 0 1 2 4 5 4 2 3 7 10 12 12 13 14 13 13 14 16 15 13 10 9 8 6 4 3 3 4 6 7 8 8 9 7 5 4 3 3 4 6 6
0 0 0 0 0 0 0 0 1 1 2 4 6 5 5 5 7 11 13 13 12 11 10 11 13 16 18 17 17 16 13 9 6 5 4 3 4 7 8 9 10 9 7 6 4 3 4 5 5
0 0 0 0 0 0 0 0 1 1 1 2 5 7 8 9 8 10 14 15 13 11 10 11 14 17 18 18 19 19 16 12 8 6 4 3 2 4 6 8 9 10 10 9 8 6 5 5 5
0 0 0 0 0 0 0 0 0 1 0 1 4 8 10 10 9 10 14 16 15 13 13 14 16 18 18 19 18 18 16 12 8 5 3 2 1 2 4 6 7 9 10 12 11 9 9 9 10
0 0 0 0 0 0 0 0 1 1 1 2 5 8 10 10 8 9 12 14 14 14 15 16 18 19 19 19 19 18 15 10 7 6 4 3 2 3 6 7 7 8 9 11 10 9 11 15 16
0 0 0 0 0 0 0 0 1 2 3 5 6 8 10 9 7 7 8 10 11 11 12 14 17 19 19 18 18 16 15 13 11 10 8 6 6 8 9 9 7 7 8 9 9 9 12 17 18
0 0 0 0 0 0 0 0 0 1 4 6 7 9 11 9 7 6 7 7 7 8 9 11 16 19 18 17 16 15 17 16 15 14 13 11 10 11 11 11 10 9 9 9 8 8 10 14 15
0 0 0 0 0 0 0 0 0 1 3 6 7 10 13 11 9 9 10 10 8 8 10 12 15 17 18 18 17 17 18 17 15 15 15 14 13 12 12 12 11 11 11 12 11 10 12 13 13
0 0 0 0 0 0 0 0 0 1 3 5 7 10 13 12 10 11 14 14 10 10 12 13 15 17 17 18 18 19 20 17 14 15 16 16 15 14 13 12 11 12 12 15 16 15 15 15 15